Year,Month,Day,Hour,Minute,Value (Times are PST for temperature in C)
2012,05,26,00,00,18.20
2012,05,26,00,01,18.20
2012,05,26,00,02,18.20
2012,05,26,00,03,18.20
2012,05,26,00,04,18.30
2012,05,26,00,05,18.40
2012,05,26,00,06,18.40
2012,05,26,00,07,18.40
2012,05,26,00,08,18.50
2012,05,26,00,09,18.50
2012,05,26,00,10,18.40
2012,05,26,00,11,18.40
2012,05,26,00,12,18.50
2012,05,26,00,13,18.50
2012,05,26,00,14,18.50
2012,05,26,00,15,18.50
2012,05,26,00,16,18.50
2012,05,26,00,17,18.50
2012,05,26,00,18,18.50
2012,05,26,00,19,18.50
2012,05,26,00,20,18.60
2012,05,26,00,21,18.60
2012,05,26,00,22,18.60
2012,05,26,00,23,18.60
2012,05,26,00,24,18.60
2012,05,26,00,25,18.60
2012,05,26,00,26,18.60
2012,05,26,00,27,18.70
2012,05,26,00,28,18.70
2012,05,26,00,29,18.70
2012,05,26,00,30,18.80
2012,05,26,00,31,18.80
2012,05,26,00,32,18.80
2012,05,26,00,33,18.80
2012,05,26,00,34,18.80
2012,05,26,00,35,18.80
2012,05,26,00,36,18.70
2012,05,26,00,37,18.70
2012,05,26,00,38,18.70
2012,05,26,00,39,18.70
2012,05,26,00,40,18.60
2012,05,26,00,41,18.60
2012,05,26,00,42,18.60
2012,05,26,00,43,18.50
2012,05,26,00,44,18.40
2012,05,26,00,45,18.30
2012,05,26,00,46,18.20
2012,05,26,00,47,18.20
2012,05,26,00,48,18.20
2012,05,26,00,49,18.10
2012,05,26,00,50,18.00
2012,05,26,00,51,18.00
2012,05,26,00,52,17.90
2012,05,26,00,53,17.90
2012,05,26,00,54,17.90
2012,05,26,00,55,17.90
2012,05,26,00,56,17.90
2012,05,26,00,57,17.90
2012,05,26,00,58,17.80
2012,05,26,00,59,17.80
2012,05,26,01,00,17.80
2012,05,26,01,01,17.80
2012,05,26,01,02,17.70
2012,05,26,01,03,17.70
2012,05,26,01,04,17.70
2012,05,26,01,05,17.60
2012,05,26,01,06,17.60
2012,05,26,01,07,17.50
2012,05,26,01,08,17.50
2012,05,26,01,09,17.40
2012,05,26,01,10,17.40
2012,05,26,01,11,17.40
2012,05,26,01,12,17.40
2012,05,26,01,13,17.30
2012,05,26,01,14,17.40
2012,05,26,01,15,17.40
2012,05,26,01,16,17.40
2012,05,26,01,17,17.40
2012,05,26,01,18,17.50
2012,05,26,01,19,17.50
2012,05,26,01,20,17.60
2012,05,26,01,21,17.60
2012,05,26,01,22,17.70
2012,05,26,01,23,17.70
2012,05,26,01,24,17.80
2012,05,26,01,25,17.80
2012,05,26,01,26,17.80
2012,05,26,01,27,17.80
2012,05,26,01,28,17.80
2012,05,26,01,29,17.80
2012,05,26,01,30,17.80
2012,05,26,01,31,17.80
2012,05,26,01,32,17.80
2012,05,26,01,33,17.80
2012,05,26,01,34,17.90
2012,05,26,01,35,17.90
2012,05,26,01,36,17.90
2012,05,26,01,37,18.00
2012,05,26,01,38,18.00
2012,05,26,01,39,18.00
2012,05,26,01,40,18.10
2012,05,26,01,41,18.10
2012,05,26,01,42,18.10
2012,05,26,01,43,18.10
2012,05,26,01,44,18.20
2012,05,26,01,45,18.20
2012,05,26,01,46,18.20
2012,05,26,01,47,18.20
2012,05,26,01,48,18.20
2012,05,26,01,49,18.20
2012,05,26,01,50,18.20
2012,05,26,01,51,18.20
2012,05,26,01,52,18.20
2012,05,26,01,53,18.20
2012,05,26,01,54,18.20
2012,05,26,01,55,18.10
2012,05,26,01,56,18.10
2012,05,26,01,57,18.10
2012,05,26,01,58,18.00
2012,05,26,01,59,18.00
2012,05,26,02,00,18.00
2012,05,26,02,01,17.90
2012,05,26,02,02,17.90
2012,05,26,02,03,17.80
2012,05,26,02,04,17.80
2012,05,26,02,05,17.80
2012,05,26,02,06,17.70
2012,05,26,02,07,17.70
2012,05,26,02,08,17.60
2012,05,26,02,09,17.60
2012,05,26,02,10,17.50
2012,05,26,02,11,17.40
2012,05,26,02,12,17.40
2012,05,26,02,13,17.30
2012,05,26,02,14,17.30
2012,05,26,02,15,17.20
2012,05,26,02,16,17.20
2012,05,26,02,17,17.10
2012,05,26,02,18,17.10
2012,05,26,02,19,17.10
2012,05,26,02,20,17.10
2012,05,26,02,21,17.10
2012,05,26,02,22,17.10
2012,05,26,02,23,17.00
2012,05,26,02,24,17.00
2012,05,26,02,25,17.10
2012,05,26,02,26,17.10
2012,05,26,02,27,17.10
2012,05,26,02,28,17.10
2012,05,26,02,29,17.10
2012,05,26,02,30,17.10
2012,05,26,02,31,17.10
2012,05,26,02,32,17.10
2012,05,26,02,33,17.10
2012,05,26,02,34,17.10
2012,05,26,02,35,17.00
2012,05,26,02,36,17.00
2012,05,26,02,37,17.00
2012,05,26,02,38,17.00
2012,05,26,02,39,17.00
2012,05,26,02,40,17.00
2012,05,26,02,41,17.00
2012,05,26,02,42,16.90
2012,05,26,02,43,16.90
2012,05,26,02,44,16.90
2012,05,26,02,45,16.90
2012,05,26,02,46,16.80
2012,05,26,02,47,16.80
2012,05,26,02,48,16.80
2012,05,26,02,49,16.80
2012,05,26,02,50,16.70
2012,05,26,02,51,16.70
2012,05,26,02,52,16.70
2012,05,26,02,53,16.60
2012,05,26,02,54,16.60
2012,05,26,02,55,16.50
2012,05,26,02,56,16.40
2012,05,26,02,57,16.40
2012,05,26,02,58,16.30
2012,05,26,02,59,16.30
2012,05,26,03,00,16.20
2012,05,26,03,01,16.20
2012,05,26,03,02,16.20
2012,05,26,03,03,16.20
2012,05,26,03,04,16.30
2012,05,26,03,05,16.30
2012,05,26,03,06,16.30
2012,05,26,03,07,16.30
2012,05,26,03,08,16.30
2012,05,26,03,09,16.40
2012,05,26,03,10,16.40
2012,05,26,03,11,16.40
2012,05,26,03,12,16.40
2012,05,26,03,13,16.40
2012,05,26,03,14,16.40
2012,05,26,03,15,16.40
2012,05,26,03,16,16.40
2012,05,26,03,17,16.40
2012,05,26,03,18,16.40
2012,05,26,03,19,16.50
2012,05,26,03,20,16.50
2012,05,26,03,21,16.50
2012,05,26,03,22,16.60
2012,05,26,03,23,16.60
2012,05,26,03,24,16.60
2012,05,26,03,25,16.60
2012,05,26,03,26,16.60
2012,05,26,03,27,16.50
2012,05,26,03,28,16.50
2012,05,26,03,29,16.40
2012,05,26,03,30,16.40
2012,05,26,03,31,16.40
2012,05,26,03,32,16.40
2012,05,26,03,33,16.30
2012,05,26,03,34,16.30
2012,05,26,03,35,16.30
2012,05,26,03,36,16.30
2012,05,26,03,37,16.30
2012,05,26,03,38,16.30
2012,05,26,03,39,16.30
2012,05,26,03,40,16.40
2012,05,26,03,41,16.40
2012,05,26,03,42,16.50
2012,05,26,03,43,16.50
2012,05,26,03,44,16.50
2012,05,26,03,45,16.50
2012,05,26,03,46,16.60
2012,05,26,03,47,16.60
2012,05,26,03,48,16.60
2012,05,26,03,49,16.60
2012,05,26,03,50,16.60
2012,05,26,03,51,16.60
2012,05,26,03,52,16.60
2012,05,26,03,53,16.60
2012,05,26,03,54,16.60
2012,05,26,03,55,16.60
2012,05,26,03,56,16.60
2012,05,26,03,57,16.60
2012,05,26,03,58,16.70
2012,05,26,03,59,16.70
2012,05,26,04,00,16.70
2012,05,26,04,01,16.70
2012,05,26,04,02,16.70
2012,05,26,04,03,16.70
2012,05,26,04,04,16.60
2012,05,26,04,05,16.60
2012,05,26,04,06,16.60
2012,05,26,04,07,16.60
2012,05,26,04,08,16.60
2012,05,26,04,09,16.50
2012,05,26,04,10,16.50
2012,05,26,04,11,16.50
2012,05,26,04,12,16.50
2012,05,26,04,13,16.50
2012,05,26,04,14,16.40
2012,05,26,04,15,16.40
2012,05,26,04,16,16.30
2012,05,26,04,17,16.30
2012,05,26,04,18,16.30
2012,05,26,04,19,16.30
2012,05,26,04,20,16.30
2012,05,26,04,21,16.30
2012,05,26,04,22,16.30
2012,05,26,04,23,16.20
2012,05,26,04,24,16.20
2012,05,26,04,25,16.20
2012,05,26,04,26,16.10
2012,05,26,04,27,16.10
2012,05,26,04,28,16.00
2012,05,26,04,29,16.00
2012,05,26,04,30,16.00
2012,05,26,04,31,16.00
2012,05,26,04,32,16.00
2012,05,26,04,33,15.90
2012,05,26,04,34,15.90
2012,05,26,04,35,15.80
2012,05,26,04,36,15.80
2012,05,26,04,37,15.80
2012,05,26,04,38,15.70
2012,05,26,04,39,15.70
2012,05,26,04,40,15.60
2012,05,26,04,41,15.60
2012,05,26,04,42,15.50
2012,05,26,04,43,15.40
2012,05,26,04,44,15.30
2012,05,26,04,45,15.20
2012,05,26,04,46,15.10
2012,05,26,04,47,15.00
2012,05,26,04,48,15.00
2012,05,26,04,49,14.90
2012,05,26,04,50,14.80
2012,05,26,04,51,14.70
2012,05,26,04,52,14.60
2012,05,26,04,53,14.50
2012,05,26,04,54,14.40
2012,05,26,04,55,14.30
2012,05,26,04,56,14.30
2012,05,26,04,57,14.20
2012,05,26,04,58,14.10
2012,05,26,04,59,14.10
2012,05,26,05,00,14.00
2012,05,26,05,01,14.00
2012,05,26,05,02,13.90
2012,05,26,05,03,13.80
2012,05,26,05,04,13.80
2012,05,26,05,05,13.80
2012,05,26,05,06,13.70
2012,05,26,05,07,13.70
2012,05,26,05,08,13.60
2012,05,26,05,09,13.60
2012,05,26,05,10,13.50
2012,05,26,05,11,13.50
2012,05,26,05,12,13.40
2012,05,26,05,13,13.40
2012,05,26,05,14,13.30
2012,05,26,05,15,13.30
2012,05,26,05,16,13.20
2012,05,26,05,17,13.20
2012,05,26,05,18,13.20
2012,05,26,05,19,13.10
2012,05,26,05,20,13.10
2012,05,26,05,21,13.00
2012,05,26,05,22,12.90
2012,05,26,05,23,12.90
2012,05,26,05,24,12.80
2012,05,26,05,25,12.80
2012,05,26,05,26,12.80
2012,05,26,05,27,12.70
2012,05,26,05,28,12.70
2012,05,26,05,29,12.60
2012,05,26,05,30,12.60
2012,05,26,05,31,12.50
2012,05,26,05,32,12.50
2012,05,26,05,33,12.40
2012,05,26,05,34,12.40
2012,05,26,05,35,12.30
2012,05,26,05,36,12.30
2012,05,26,05,37,12.30
2012,05,26,05,38,12.30
2012,05,26,05,39,12.20
2012,05,26,05,40,12.20
2012,05,26,05,41,12.20
2012,05,26,05,42,12.10
2012,05,26,05,43,12.10
2012,05,26,05,44,12.00
2012,05,26,05,45,12.00
2012,05,26,05,46,12.00
2012,05,26,05,47,11.90
2012,05,26,05,48,11.90
2012,05,26,05,49,11.90
2012,05,26,05,50,11.90
2012,05,26,05,51,11.90
2012,05,26,05,52,11.90
2012,05,26,05,53,11.90
2012,05,26,05,54,11.90
2012,05,26,05,55,11.90
2012,05,26,05,56,11.90
2012,05,26,05,57,11.90
2012,05,26,05,58,11.90
2012,05,26,05,59,11.90
2012,05,26,06,00,11.90
2012,05,26,06,01,11.90
2012,05,26,06,02,12.00
2012,05,26,06,03,12.00
2012,05,26,06,04,12.00
2012,05,26,06,05,12.00
2012,05,26,06,06,12.00
2012,05,26,06,07,12.00
2012,05,26,06,08,12.00
2012,05,26,06,09,12.00
2012,05,26,06,10,12.00
2012,05,26,06,11,12.00
2012,05,26,06,12,12.00
2012,05,26,06,13,12.00
2012,05,26,06,14,11.90
2012,05,26,06,15,11.90
2012,05,26,06,16,11.90
2012,05,26,06,17,11.90
2012,05,26,06,18,11.90
2012,05,26,06,19,11.90
2012,05,26,06,20,11.90
2012,05,26,06,21,11.90
2012,05,26,06,22,11.90
2012,05,26,06,23,11.90
2012,05,26,06,24,11.90
2012,05,26,06,25,12.00
2012,05,26,06,26,12.00
2012,05,26,06,27,12.00
2012,05,26,06,28,12.10
2012,05,26,06,29,12.10
2012,05,26,06,30,12.10
2012,05,26,06,31,12.20
2012,05,26,06,32,12.20
2012,05,26,06,33,12.20
2012,05,26,06,34,12.30
2012,05,26,06,35,12.30
2012,05,26,06,36,12.40
2012,05,26,06,37,12.40
2012,05,26,06,38,12.50
2012,05,26,06,39,12.50
2012,05,26,06,40,12.60
2012,05,26,06,41,12.60
2012,05,26,06,42,12.70
2012,05,26,06,43,12.80
2012,05,26,06,44,12.80
2012,05,26,06,45,12.90
2012,05,26,06,46,13.00
2012,05,26,06,47,13.10
2012,05,26,06,48,13.10
2012,05,26,06,49,13.20
2012,05,26,06,50,13.30
2012,05,26,06,51,13.30
2012,05,26,06,52,13.40
2012,05,26,06,53,13.40
2012,05,26,06,54,13.50
2012,05,26,06,55,13.50
2012,05,26,06,56,13.50
2012,05,26,06,57,13.60
2012,05,26,06,58,13.60
2012,05,26,06,59,13.60
2012,05,26,07,00,13.60
2012,05,26,07,01,13.60
2012,05,26,07,02,13.70
2012,05,26,07,03,13.70
2012,05,26,07,04,13.80
2012,05,26,07,05,13.90
2012,05,26,07,06,13.90
2012,05,26,07,07,14.00
2012,05,26,07,08,14.00
2012,05,26,07,09,14.10
2012,05,26,07,10,14.10
2012,05,26,07,11,14.20
2012,05,26,07,12,14.30
2012,05,26,07,13,14.30
2012,05,26,07,14,14.40
2012,05,26,07,15,14.50
2012,05,26,07,16,14.50
2012,05,26,07,17,14.60
2012,05,26,07,18,14.70
2012,05,26,07,19,14.80
2012,05,26,07,20,14.80
2012,05,26,07,21,14.90
2012,05,26,07,22,15.00
2012,05,26,07,23,15.00
2012,05,26,07,24,15.10
2012,05,26,07,25,15.20
2012,05,26,07,26,15.30
2012,05,26,07,27,15.40
2012,05,26,07,28,15.40
2012,05,26,07,29,15.50
2012,05,26,07,30,15.60
2012,05,26,07,31,15.60
2012,05,26,07,32,15.60
2012,05,26,07,33,15.60
2012,05,26,07,34,15.70
2012,05,26,07,35,15.70
2012,05,26,07,36,15.70
2012,05,26,07,37,15.70
2012,05,26,07,38,15.80
2012,05,26,07,39,15.80
2012,05,26,07,40,15.80
2012,05,26,07,41,15.90
2012,05,26,07,42,15.90
2012,05,26,07,43,16.00
2012,05,26,07,44,16.00
2012,05,26,07,45,16.10
2012,05,26,07,46,16.20
2012,05,26,07,47,16.20
2012,05,26,07,48,16.30
2012,05,26,07,49,16.40
2012,05,26,07,50,16.40
2012,05,26,07,51,16.50
2012,05,26,07,52,16.60
2012,05,26,07,53,16.60
2012,05,26,07,54,16.70
2012,05,26,07,55,16.70
2012,05,26,07,56,16.70
2012,05,26,07,57,16.70
2012,05,26,07,58,16.70
2012,05,26,07,59,16.80
2012,05,26,08,00,16.80
2012,05,26,08,01,16.80
2012,05,26,08,02,16.80
2012,05,26,08,03,16.80
2012,05,26,08,04,16.80
2012,05,26,08,05,16.80
2012,05,26,08,06,16.80
2012,05,26,08,07,16.80
2012,05,26,08,08,16.90
2012,05,26,08,09,16.90
2012,05,26,08,10,16.90
2012,05,26,08,11,17.00
2012,05,26,08,12,17.00
2012,05,26,08,13,17.10
2012,05,26,08,14,17.10
2012,05,26,08,15,17.20
2012,05,26,08,16,17.20
2012,05,26,08,17,17.30
2012,05,26,08,18,17.30
2012,05,26,08,19,17.30
2012,05,26,08,20,17.30
2012,05,26,08,21,17.40
2012,05,26,08,22,17.40
2012,05,26,08,23,17.40
2012,05,26,08,24,17.40
2012,05,26,08,25,17.30
2012,05,26,08,26,17.30
2012,05,26,08,27,17.30
2012,05,26,08,28,17.30
2012,05,26,08,29,17.30
2012,05,26,08,30,17.30
2012,05,26,08,31,17.30
2012,05,26,08,32,17.30
2012,05,26,08,33,17.30
2012,05,26,08,34,17.30
2012,05,26,08,35,17.30
2012,05,26,08,36,17.30
2012,05,26,08,37,17.30
2012,05,26,08,38,17.40
2012,05,26,08,39,17.40
2012,05,26,08,40,17.50
2012,05,26,08,41,17.50
2012,05,26,08,42,17.60
2012,05,26,08,43,17.60
2012,05,26,08,44,17.70
2012,05,26,08,45,17.70
2012,05,26,08,46,17.80
2012,05,26,08,47,17.80
2012,05,26,08,48,17.80
2012,05,26,08,49,17.80
2012,05,26,08,50,17.80
2012,05,26,08,51,17.80
2012,05,26,08,52,17.80
2012,05,26,08,53,17.80
2012,05,26,08,54,17.80
2012,05,26,08,55,17.90
2012,05,26,08,56,17.90
2012,05,26,08,57,17.90
2012,05,26,08,58,18.00
2012,05,26,08,59,18.10
2012,05,26,09,00,18.10
2012,05,26,09,01,18.20
2012,05,26,09,02,18.20
2012,05,26,09,03,18.20
2012,05,26,09,04,18.30
2012,05,26,09,05,18.30
2012,05,26,09,06,18.30
2012,05,26,09,07,18.30
2012,05,26,09,08,18.30
2012,05,26,09,09,18.20
2012,05,26,09,10,18.20
2012,05,26,09,11,18.20
2012,05,26,09,12,18.30
2012,05,26,09,13,18.30
2012,05,26,09,14,18.30
2012,05,26,09,15,18.40
2012,05,26,09,16,18.40
2012,05,26,09,17,18.40
2012,05,26,09,18,18.40
2012,05,26,09,19,18.40
2012,05,26,09,20,18.40
2012,05,26,09,21,18.40
2012,05,26,09,22,18.40
2012,05,26,09,23,18.40
2012,05,26,09,24,18.40
2012,05,26,09,25,18.50
2012,05,26,09,26,18.50
2012,05,26,09,27,18.50
2012,05,26,09,28,18.50
2012,05,26,09,29,18.60
2012,05,26,09,30,18.60
2012,05,26,09,31,18.60
2012,05,26,09,32,18.60
2012,05,26,09,33,18.70
2012,05,26,09,34,18.70
2012,05,26,09,35,18.70
2012,05,26,09,36,18.70
2012,05,26,09,37,18.80
2012,05,26,09,38,18.80
2012,05,26,09,39,18.80
2012,05,26,09,40,18.80
2012,05,26,09,41,18.90
2012,05,26,09,42,18.90
2012,05,26,09,43,18.80
2012,05,26,09,44,18.80
2012,05,26,09,45,18.80
2012,05,26,09,46,18.80
2012,05,26,09,47,18.80
2012,05,26,09,48,18.90
2012,05,26,09,49,18.90
2012,05,26,09,50,19.00
2012,05,26,09,51,19.00
2012,05,26,09,52,19.00
2012,05,26,09,53,19.00
2012,05,26,09,54,19.00
2012,05,26,09,55,19.00
2012,05,26,09,56,19.00
2012,05,26,09,57,19.00
2012,05,26,09,58,19.00
2012,05,26,09,59,19.00
2012,05,26,10,00,19.10
2012,05,26,10,01,19.10
2012,05,26,10,02,19.10
2012,05,26,10,03,19.20
2012,05,26,10,04,19.20
2012,05,26,10,05,19.20
2012,05,26,10,06,19.20
2012,05,26,10,07,19.20
2012,05,26,10,08,19.30
2012,05,26,10,09,19.30
2012,05,26,10,10,19.40
2012,05,26,10,11,19.40
2012,05,26,10,12,19.40
2012,05,26,10,13,19.50
2012,05,26,10,14,19.50
2012,05,26,10,15,19.50
2012,05,26,10,16,19.50
2012,05,26,10,17,19.50
2012,05,26,10,18,19.50
2012,05,26,10,19,19.50
2012,05,26,10,20,19.50
2012,05,26,10,21,19.40
2012,05,26,10,22,19.40
2012,05,26,10,23,19.40
2012,05,26,10,24,19.30
2012,05,26,10,25,19.30
2012,05,26,10,26,19.30
2012,05,26,10,27,19.30
2012,05,26,10,28,19.30
2012,05,26,10,29,19.30
2012,05,26,10,30,19.30
2012,05,26,10,31,19.20
2012,05,26,10,32,19.20
2012,05,26,10,33,19.20
2012,05,26,10,34,19.20
2012,05,26,10,35,19.30
2012,05,26,10,36,19.30
2012,05,26,10,37,19.30
2012,05,26,10,38,19.30
2012,05,26,10,39,19.30
2012,05,26,10,40,19.30
2012,05,26,10,41,19.30
2012,05,26,10,42,19.30
2012,05,26,10,43,19.30
2012,05,26,10,44,19.30
2012,05,26,10,45,19.30
2012,05,26,10,46,19.30
2012,05,26,10,47,19.40
2012,05,26,10,48,19.40
2012,05,26,10,49,19.50
2012,05,26,10,50,19.50
2012,05,26,10,51,19.60
2012,05,26,10,52,19.60
2012,05,26,10,53,19.60
2012,05,26,10,54,19.60
2012,05,26,10,55,19.60
2012,05,26,10,56,19.70
2012,05,26,10,57,19.70
2012,05,26,10,58,19.80
2012,05,26,10,59,19.80
2012,05,26,11,00,19.80
2012,05,26,11,01,19.80
2012,05,26,11,02,19.80
2012,05,26,11,03,19.90
2012,05,26,11,04,19.80
2012,05,26,11,05,19.80
2012,05,26,11,06,19.80
2012,05,26,11,07,19.80
2012,05,26,11,08,19.80
2012,05,26,11,09,19.80
2012,05,26,11,10,19.70
2012,05,26,11,11,19.70
2012,05,26,11,12,19.70
2012,05,26,11,13,19.70
2012,05,26,11,14,19.70
2012,05,26,11,15,19.80
2012,05,26,11,16,19.80
2012,05,26,11,17,19.90
2012,05,26,11,18,19.90
2012,05,26,11,19,19.90
2012,05,26,11,20,20.00
2012,05,26,11,21,20.00
2012,05,26,11,22,20.00
2012,05,26,11,23,20.00
2012,05,26,11,24,20.10
2012,05,26,11,25,20.10
2012,05,26,11,26,20.10
2012,05,26,11,27,20.10
2012,05,26,11,28,20.10
2012,05,26,11,29,20.10
2012,05,26,11,30,20.20
2012,05,26,11,31,20.30
2012,05,26,11,32,20.30
2012,05,26,11,33,20.40
2012,05,26,11,34,20.50
2012,05,26,11,35,20.60
2012,05,26,11,36,20.70
2012,05,26,11,37,20.70
2012,05,26,11,38,20.70
2012,05,26,11,39,20.60
2012,05,26,11,40,20.60
2012,05,26,11,41,20.60
2012,05,26,11,42,20.70
2012,05,26,11,43,20.70
2012,05,26,11,44,20.70
2012,05,26,11,45,20.80
2012,05,26,11,46,20.70
2012,05,26,11,47,20.70
2012,05,26,11,48,20.80
2012,05,26,11,49,20.80
2012,05,26,11,50,20.80
2012,05,26,11,51,20.80
2012,05,26,11,52,20.80
2012,05,26,11,53,20.90
2012,05,26,11,54,20.90
2012,05,26,11,55,21.00
2012,05,26,11,56,21.10
2012,05,26,11,57,21.20
2012,05,26,11,58,21.10
2012,05,26,11,59,21.10
2012,05,26,12,00,21.10
2012,05,26,12,01,21.20
2012,05,26,12,02,21.20
2012,05,26,12,03,21.20
2012,05,26,12,04,21.20
2012,05,26,12,05,21.20
2012,05,26,12,06,21.20
2012,05,26,12,07,21.10
2012,05,26,12,08,21.10
2012,05,26,12,09,21.10
2012,05,26,12,10,21.10
2012,05,26,12,11,21.10
2012,05,26,12,12,21.20
2012,05,26,12,13,21.20
2012,05,26,12,14,21.20
2012,05,26,12,15,21.30
2012,05,26,12,16,21.30
2012,05,26,12,17,21.30
2012,05,26,12,18,21.30
2012,05,26,12,19,21.40
2012,05,26,12,20,21.50
2012,05,26,12,21,21.50
2012,05,26,12,22,21.60
2012,05,26,12,23,21.60
2012,05,26,12,24,21.60
2012,05,26,12,25,21.70
2012,05,26,12,26,21.80
2012,05,26,12,27,21.80
2012,05,26,12,28,21.90
2012,05,26,12,29,22.00
2012,05,26,12,30,22.00
2012,05,26,12,31,22.00
2012,05,26,12,32,22.00
2012,05,26,12,33,21.80
2012,05,26,12,34,21.80
2012,05,26,12,35,21.70
2012,05,26,12,36,21.60
2012,05,26,12,37,21.60
2012,05,26,12,38,21.60
2012,05,26,12,39,21.60
2012,05,26,12,40,21.60
2012,05,26,12,41,21.60
2012,05,26,12,42,21.60
2012,05,26,12,43,21.60
2012,05,26,12,44,21.60
2012,05,26,12,45,21.60
2012,05,26,12,46,21.50
2012,05,26,12,47,21.50
2012,05,26,12,48,21.50
2012,05,26,12,49,21.50
2012,05,26,12,50,21.50
2012,05,26,12,51,21.60
2012,05,26,12,52,21.60
2012,05,26,12,53,21.60
2012,05,26,12,54,21.60
2012,05,26,12,55,21.50
2012,05,26,12,56,21.50
2012,05,26,12,57,21.50
2012,05,26,12,58,21.60
2012,05,26,12,59,21.60
2012,05,26,13,00,21.70
2012,05,26,13,01,21.80
2012,05,26,13,02,21.80
2012,05,26,13,03,21.90
2012,05,26,13,04,22.00
2012,05,26,13,05,22.00
2012,05,26,13,06,22.00
2012,05,26,13,07,22.00
2012,05,26,13,08,21.90
2012,05,26,13,09,21.90
2012,05,26,13,10,22.00
2012,05,26,13,11,22.10
2012,05,26,13,12,22.20
2012,05,26,13,13,22.20
2012,05,26,13,14,22.30
2012,05,26,13,15,22.30
2012,05,26,13,16,22.30
2012,05,26,13,17,22.30
2012,05,26,13,18,22.40
2012,05,26,13,19,22.40
2012,05,26,13,20,22.40
2012,05,26,13,21,22.50
2012,05,26,13,22,22.50
2012,05,26,13,23,22.60
2012,05,26,13,24,22.60
2012,05,26,13,25,22.60
2012,05,26,13,26,22.60
2012,05,26,13,27,22.60
2012,05,26,13,28,22.70
2012,05,26,13,29,22.80
2012,05,26,13,30,22.80
2012,05,26,13,31,22.80
2012,05,26,13,32,22.80
2012,05,26,13,33,22.80
2012,05,26,13,34,22.80
2012,05,26,13,35,22.80
2012,05,26,13,36,22.80
2012,05,26,13,37,22.80
2012,05,26,13,38,22.80
2012,05,26,13,39,22.80
2012,05,26,13,40,22.90
2012,05,26,13,41,22.90
2012,05,26,13,42,22.90
2012,05,26,13,43,22.90
2012,05,26,13,44,22.90
2012,05,26,13,45,22.90
2012,05,26,13,46,23.00
2012,05,26,13,47,23.00
2012,05,26,13,48,23.00
2012,05,26,13,49,23.00
2012,05,26,13,50,23.00
2012,05,26,13,51,23.00
2012,05,26,13,52,22.90
2012,05,26,13,53,22.90
2012,05,26,13,54,22.90
2012,05,26,13,55,22.90
2012,05,26,13,56,22.90
2012,05,26,13,57,22.90
2012,05,26,13,58,22.80
2012,05,26,13,59,22.90
2012,05,26,14,00,22.90
2012,05,26,14,01,22.90
2012,05,26,14,02,23.00
2012,05,26,14,03,23.10
2012,05,26,14,04,23.10
2012,05,26,14,05,23.10
2012,05,26,14,06,23.20
2012,05,26,14,07,23.30
2012,05,26,14,08,23.30
2012,05,26,14,09,23.40
2012,05,26,14,10,23.50
2012,05,26,14,11,23.50
2012,05,26,14,12,23.50
2012,05,26,14,13,23.40
2012,05,26,14,14,23.30
2012,05,26,14,15,23.30
2012,05,26,14,16,23.20
2012,05,26,14,17,23.20
2012,05,26,14,18,23.20
2012,05,26,14,19,23.20
2012,05,26,14,20,23.20
2012,05,26,14,21,23.30
2012,05,26,14,22,23.30
2012,05,26,14,23,23.40
2012,05,26,14,24,23.40
2012,05,26,14,25,23.40
2012,05,26,14,26,23.40
2012,05,26,14,27,23.50
2012,05,26,14,28,23.50
2012,05,26,14,29,23.60
2012,05,26,14,30,23.60
2012,05,26,14,31,23.60
2012,05,26,14,32,23.70
2012,05,26,14,33,23.70
2012,05,26,14,34,23.60
2012,05,26,14,35,23.60
2012,05,26,14,36,23.60
2012,05,26,14,37,23.50
2012,05,26,14,38,23.50
2012,05,26,14,39,23.40
2012,05,26,14,40,23.50
2012,05,26,14,41,23.50
2012,05,26,14,42,23.60
2012,05,26,14,43,23.60
2012,05,26,14,44,23.70
2012,05,26,14,45,23.70
2012,05,26,14,46,23.70
2012,05,26,14,47,23.70
2012,05,26,14,48,23.60
2012,05,26,14,49,23.50
2012,05,26,14,50,23.40
2012,05,26,14,51,23.30
2012,05,26,14,52,23.20
2012,05,26,14,53,23.20
2012,05,26,14,54,23.10
2012,05,26,14,55,23.10
2012,05,26,14,56,23.00
2012,05,26,14,57,23.00
2012,05,26,14,58,23.00
2012,05,26,14,59,22.90
2012,05,26,15,00,23.00
2012,05,26,15,01,23.00
2012,05,26,15,02,23.10
2012,05,26,15,03,23.10
2012,05,26,15,04,23.20
2012,05,26,15,05,23.30
2012,05,26,15,06,23.40
2012,05,26,15,07,23.50
2012,05,26,15,08,23.50
2012,05,26,15,09,23.60
2012,05,26,15,10,23.60
2012,05,26,15,11,23.70
2012,05,26,15,12,23.70
2012,05,26,15,13,23.70
2012,05,26,15,14,23.80
2012,05,26,15,15,23.80
2012,05,26,15,16,23.90
2012,05,26,15,17,23.90
2012,05,26,15,18,24.00
2012,05,26,15,19,24.10
2012,05,26,15,20,24.10
2012,05,26,15,21,24.20
2012,05,26,15,22,24.20
2012,05,26,15,23,24.30
2012,05,26,15,24,24.30
2012,05,26,15,25,24.30
2012,05,26,15,26,24.40
2012,05,26,15,27,24.40
2012,05,26,15,28,24.30
2012,05,26,15,29,24.30
2012,05,26,15,30,24.20
2012,05,26,15,31,24.10
2012,05,26,15,32,24.00
2012,05,26,15,33,23.90
2012,05,26,15,34,23.80
2012,05,26,15,35,23.80
2012,05,26,15,36,23.70
2012,05,26,15,37,23.70
2012,05,26,15,38,23.80
2012,05,26,15,39,23.80
2012,05,26,15,40,23.80
2012,05,26,15,41,23.90
2012,05,26,15,42,24.00
2012,05,26,15,43,24.00
2012,05,26,15,44,24.10
2012,05,26,15,45,24.20
2012,05,26,15,46,24.20
2012,05,26,15,47,24.20
2012,05,26,15,48,24.30
2012,05,26,15,49,24.30
2012,05,26,15,50,24.30
2012,05,26,15,51,24.30
2012,05,26,15,52,24.30
2012,05,26,15,53,24.20
2012,05,26,15,54,24.20
2012,05,26,15,55,24.30
2012,05,26,15,56,24.30
2012,05,26,15,57,24.30
2012,05,26,15,58,24.40
2012,05,26,15,59,24.40
2012,05,26,16,00,24.50
2012,05,26,16,01,24.60
2012,05,26,16,02,24.60
2012,05,26,16,03,24.60
2012,05,26,16,04,24.60
2012,05,26,16,05,24.60
2012,05,26,16,06,24.60
2012,05,26,16,07,24.60
2012,05,26,16,08,24.50
2012,05,26,16,09,24.50
2012,05,26,16,10,24.40
2012,05,26,16,11,24.50
2012,05,26,16,12,24.50
2012,05,26,16,13,24.60
2012,05,26,16,14,24.60
2012,05,26,16,15,24.70
2012,05,26,16,16,24.70
2012,05,26,16,17,24.80
2012,05,26,16,18,24.80
2012,05,26,16,19,24.80
2012,05,26,16,20,24.80
2012,05,26,16,21,24.80
2012,05,26,16,22,24.70
2012,05,26,16,23,24.70
2012,05,26,16,24,24.70
2012,05,26,16,25,24.60
2012,05,26,16,26,24.60
2012,05,26,16,27,24.60
2012,05,26,16,28,24.50
2012,05,26,16,29,24.50
2012,05,26,16,30,24.40
2012,05,26,16,31,24.40
2012,05,26,16,32,24.40
2012,05,26,16,33,24.40
2012,05,26,16,34,24.30
2012,05,26,16,35,24.30
2012,05,26,16,36,24.20
2012,05,26,16,37,24.20
2012,05,26,16,38,24.10
2012,05,26,16,39,24.00
2012,05,26,16,40,23.90
2012,05,26,16,41,23.80
2012,05,26,16,42,23.70
2012,05,26,16,43,23.60
2012,05,26,16,44,23.50
2012,05,26,16,45,23.50
2012,05,26,16,46,23.40
2012,05,26,16,47,23.40
2012,05,26,16,48,23.40
2012,05,26,16,49,23.30
2012,05,26,16,50,23.30
2012,05,26,16,51,23.30
2012,05,26,16,52,23.30
2012,05,26,16,53,23.30
2012,05,26,16,54,23.30
2012,05,26,16,55,23.30
2012,05,26,16,56,23.40
2012,05,26,16,57,23.40
2012,05,26,16,58,23.40
2012,05,26,16,59,23.40
2012,05,26,17,00,23.40
2012,05,26,17,01,23.50
2012,05,26,17,02,23.50
2012,05,26,17,03,23.50
2012,05,26,17,04,23.60
2012,05,26,17,05,23.60
2012,05,26,17,06,23.60
2012,05,26,17,07,23.70
2012,05,26,17,08,23.70
2012,05,26,17,09,23.70
2012,05,26,17,10,23.70
2012,05,26,17,11,23.70
2012,05,26,17,12,23.70
2012,05,26,17,13,23.70
2012,05,26,17,14,23.70
2012,05,26,17,15,23.70
2012,05,26,17,16,23.60
2012,05,26,17,17,23.60
2012,05,26,17,18,23.60
2012,05,26,17,19,23.60